Location: LDNL
(36.4545°S, 141.6685°E)
Time: 07:11:32
(UTC+10:00)

N. Korean satellite - Visible Passes

Search period start: 10 August 2022 00:00
Search period end: 20 August 2022 00:00
Orbit: 433 x 471 km, 97.3° (Epoch: 09 August)

Date Brightness Start Highest point End Pass type
(mag) Time Alt. Az. Time Alt. Az. Time Alt. Az.
12 Aug 9.4 18:38:59 10° SSW 18:41:07 16° WSW 18:43:13 10° WNW visible
15 Aug 9.1 18:27:50 10° SSW 18:30:29 22° WSW 18:33:07 10° NW visible
17 Aug 9.8 18:52:58 10° SW 18:53:55 11° WSW 18:54:52 10° W visible
